Regional Weather Roundup
Issued by NWS

Home | Current Version | Previous Version | Text Only | Print | Product List | Glossary On
Versions: 1 2 3 4 5 6 7 8 9 10 11 12 13 14 15 16 17 18 19 20 21 22 23 24 25 26 27 28 29 30 31 32 33 34 35 36 37 38 39 40 41 42 43 44 45 46 47 48 49 50
000
ASCA42 TJSJ 290410
RWRPR
PUERTO RICO/U.S. VIRGIN ISLANDS HOURLY WEATHER ROUNDUP
NATIONAL WEATHER SERVICE SAN JUAN PR
1200 AM AST SUN MAR 29 2015

PRZ001-004-290500-
PUERTO RICO

CITY           SKY/WX    TMP DP  RH WIND       PRES   REMARKS
SAN JUAN LMM   PTCLDY    77  70  78 VRB5      30.12S
PONCE          PTCLDY    73  66  78 CALM      30.06R
CEIBA          PTCLDY    79  70  73 E9        30.13F
$$

PRZ006-007-290500-
U.S. VIRGIN ISLANDS

CITY           SKY/WX    TMP DP  RH WIND       PRES   REMARKS
$$

HOURLY WEATHER ROUNDUP FOR THE NEWS MEDIA

CITY           SKY/WX    TMP DP  RH WIND       PRES   REMARKS
ORLANDO        CLEAR     57  43  59 W7        30.23S
NEW YORK       FLURRIES  30  17  58 NW16G23   30.12R WCI  19
NEWARK         MOCLDY    28  16  60 NW15G23   30.14R WCI  16
CHICAGO        FAIR      24  13  62 S7        30.27F WCI  16
HARTFORD       LGT SNOW  32  30  92 VRB7      30.01R FOG     WCI  26
BOSTON         CLOUDY    32  19  58 NW16G25   30.02R WCI  21
DALLAS         PTCLDY    72  45  37 S14       30.01R
PHILADELPHIA   MOCLDY    29   7  39 N16       30.19R WCI  17
LOS ANGELES    PTCLDY    60  58  92 CALM      30.04R
WASHINGTON DC  CLEAR     28   7  41 NW10      30.25R WCI  19



USA.gov is the U.S. government's official web portal to all federal, state and local government web resources and services.